Time,TemperatureF,DewpointF,PressureIn,WindDirection,WindDirectionDegrees,WindSpeedMPH,WindSpeedGustMPH,Humidity,HourlyPrecipIn,Conditions,Clouds,dailyrainin,SoftwareType,DateUTC
2013-05-25 00:00:00,73.5,67.3,30.11,NNE,22,0.0,2.0,81,0.00,,---,0.00,VWS V14.01,2013-05-25 04:00:00,
2013-05-25 01:00:00,71.0,65.9,30.12,NNE,22,0.0,0.0,84,0.00,,---,0.00,VWS V14.01,2013-05-25 05:00:00,
2013-05-25 02:00:00,69.5,65.8,30.11,NNE,22,2.0,3.0,88,0.00,,---,0.00,VWS V14.01,2013-05-25 06:00:00,
2013-05-25 03:00:00,75.2,66.7,30.11,NNE,21,11.0,16.0,75,0.00,,---,0.00,VWS V14.01,2013-05-25 07:00:00,
2013-05-25 04:00:00,74.8,60.0,30.11,ENE,70,16.0,20.0,60,0.00,,---,0.00,VWS V14.01,2013-05-25 08:00:00,
2013-05-25 05:00:00,74.4,59.6,30.12,NE,44,13.0,20.0,60,0.00,,---,0.00,VWS V14.01,2013-05-25 09:00:00,
2013-05-25 06:00:00,73.7,59.0,30.13,ENE,63,5.0,18.0,60,0.00,,---,0.00,VWS V14.01,2013-05-25 10:00:00,
2013-05-25 07:00:00,73.8,58.6,30.17,ENE,67,10.0,16.0,59,0.00,,---,0.00,VWS V14.01,2013-05-25 11:00:00,
2013-05-25 08:00:00,74.6,57.9,30.20,NNE,27,5.0,18.0,56,0.00,,---,0.00,VWS V14.01,2013-05-25 12:00:00,
2013-05-25 09:00:00,75.8,57.5,30.22,NE,48,8.0,19.0,53,0.00,,---,0.00,VWS V14.01,2013-05-25 13:00:00,
2013-05-25 10:00:00,75.8,57.5,30.22,NE,48,8.0,19.0,53,0.00,,---,0.00,VWS V14.01,2013-05-25 14:00:00,
2013-05-25 11:00:00,76.2,57.3,30.24,NE,45,9.0,17.0,52,0.00,,---,0.00,VWS V14.01,2013-05-25 15:00:00,
2013-05-25 12:00:00,77.0,58.6,30.25,NE,45,8.0,17.0,53,0.00,,---,0.00,VWS V14.01,2013-05-25 16:00:00,
2013-05-25 13:00:00,77.3,56.7,30.27,NE,45,9.0,17.0,49,0.00,,---,0.00,VWS V14.01,2013-05-25 17:00:00,
2013-05-25 14:00:00,77.6,57.5,30.26,NE,45,8.0,15.0,50,0.00,,---,0.00,VWS V14.01,2013-05-25 18:00:00,
2013-05-25 15:00:00,77.9,55.5,30.24,NE,45,8.0,14.0,46,0.00,,---,0.00,VWS V14.01,2013-05-25 19:00:00,
2013-05-25 16:00:00,76.9,58.0,30.23,NE,45,7.0,13.0,52,0.00,,---,0.00,VWS V14.01,2013-05-25 20:00:00,
2013-05-25 17:00:00,75.7,56.8,30.20,NE,45,6.0,14.0,52,0.00,,---,0.00,VWS V14.01,2013-05-25 21:00:00,
2013-05-25 18:00:00,75.7,56.8,30.20,NE,45,6.0,14.0,52,0.00,,---,0.00,VWS V14.01,2013-05-25 22:00:00,
2013-05-25 18:17:00,75.7,56.8,30.20,NE,45,6.0,14.0,52,0.00,,---,0.00,VWS V14.01,2013-05-25 22:17:00,
2013-05-25 18:22:00,74.8,56.5,30.20,ENE,57,3.0,8.0,53,0.00,,---,0.00,VWS V14.01,2013-05-25 22:22:00,
2013-05-25 18:27:00,74.9,55.6,30.20,ENE,71,7.0,8.0,51,0.00,,---,0.00,VWS V14.01,2013-05-25 22:27:00,
2013-05-25 18:32:00,74.7,56.5,30.20,NE,54,4.0,9.0,53,0.00,,---,0.00,VWS V14.01,2013-05-25 22:32:00,
2013-05-25 18:37:00,74.8,56.5,30.20,East,84,5.0,9.0,53,0.00,,---,0.00,VWS V14.01,2013-05-25 22:37:00,
2013-05-25 18:42:00,74.7,56.5,30.20,NE,37,7.0,9.0,53,0.00,,---,0.00,VWS V14.01,2013-05-25 22:42:00,
2013-05-25 18:47:00,74.4,56.7,30.20,NE,44,2.0,9.0,54,0.00,,---,0.00,VWS V14.01,2013-05-25 22:47:00,
2013-05-25 18:52:00,74.4,56.2,30.20,NNE,32,4.0,9.0,53,0.00,,---,0.00,VWS V14.01,2013-05-25 22:52:00,
2013-05-25 18:57:00,74.2,56.5,30.20,ESE,113,3.0,9.0,54,0.00,,---,0.00,VWS V14.01,2013-05-25 22:57:00,
2013-05-25 19:00:00,74.9,56.6,30.20,NE,45,6.0,12.0,53,0.00,,---,0.00,VWS V14.01,2013-05-25 23:00:00,
2013-05-25 20:00:00,74.4,56.2,30.20,NE,45,4.0,11.0,53,0.00,,---,0.00,VWS V14.01,2013-05-26 00:00:00,
2013-05-25 21:00:00,72.4,56.8,30.20,ENE,68,3.0,8.0,58,0.00,,---,0.00,VWS V14.01,2013-05-26 01:00:00,
2013-05-25 22:00:00,71.6,57.5,30.20,ESE,112,3.0,9.0,61,0.00,,---,0.00,VWS V14.01,2013-05-26 02:00:00,
2013-05-25 23:00:00,71.5,57.8,30.21,ESE,112,3.0,9.0,62,0.00,,---,0.00,VWS V14.01,2013-05-26 03:00:00,